GW2194 Weather Reports


Display with metric or nautical units.
time (UTC)temp
F
wind
direction
speed
MPH
gust
MPH
rain 1hr
in
rain 24hr
in
rain mn
in
humidity
%
barometer
mb
20260508062228 37 199 0.0 0.0 0.00 0.00 0.00 93 1016.8
20260508061724 37 269 0.0 2.0 0.00 0.00 0.00 93 1016.9
20260508061221 37 44 0.0 1.0 0.00 0.00 0.00 92 1016.9
20260508060718 37 26 1.0 2.0 0.00 0.00 0.00 92 1017.1
20260508060216 37 55 0.0 2.0 0.00 0.00 0.00 92 1017.0
20260508055711 37 246 0.0 1.0 0.00 0.00 0.00 92 1017.1
20260508055208 37 52 0.0 2.0 0.00 0.00 0.00 91 1017.1
20260508054704 37 209 0.0 1.0 0.00 0.00 0.00 91 1017.1
20260508054203 37 74 1.0 1.0 0.00 0.00 0.00 90 1017.2
20260508053659 37 310 0.0 1.0 0.00 0.00 0.00 90 1017.3
20260508053156 37 57 0.0 2.0 0.00 0.00 0.00 90 1017.3
20260508052653 37 20 2.0 2.0 0.00 0.00 0.00 89 1017.5
20260508050455 39 60 0.0 0.0 0.00 0.00 0.00 87 1017.0
20260508045951 39 60 0.0 0.0 0.00 0.00 0.00 87 1017.0
20260508045448 39 243 0.0 1.0 0.00 0.00 0.00 87 1017.2
20260508044946 39 269 0.0 0.0 0.00 0.00 0.00 87 1017.2
20260508044443 39 165 0.0 1.0 0.00 0.00 0.00 87 1017.4
20260508043938 39 129 1.0 1.0 0.00 0.00 0.00 87 1017.0
20260508043436 39 141 0.0 2.0 0.00 0.00 0.00 86 1017.2
20260508042932 39 162 0.0 2.0 0.00 0.00 0.00 86 1017.1
20260508042430 39 60 0.0 0.0 0.00 0.00 0.00 85 1016.9
20260508041926 39 208 1.0 1.0 0.00 0.00 0.00 85 1016.9
20260508041423 39 77 0.0 0.0 0.00 0.00 0.00 85 1016.8
20260508040920 40 60 0.0 2.0 0.00 0.00 0.00 85 1017.0
20260508040417 40 66 0.0 2.0 0.00 0.00 0.00 84 1016.8
20260508035915 40 229 0.0 2.0 0.00 0.02 0.02 83 1016.7
20260508035411 40 202 2.0 3.0 0.00 0.02 0.02 83 1016.7
20260508034908 40 153 0.0 1.0 0.00 0.02 0.02 82 1016.6
20260508034406 41 205 0.0 2.0 0.00 0.02 0.02 83 1016.6
20260508033902 41 72 0.0 2.0 0.00 0.02 0.02 83 1016.6
20260508033400 41 127 0.0 2.0 0.00 0.02 0.02 83 1016.4
20260508032858 41 185 0.0 1.0 0.00 0.02 0.02 82 1016.4
20260508032355 41 118 1.0 2.0 0.00 0.02 0.02 81 1016.5
20260508031851 41 108 0.0 2.0 0.00 0.02 0.02 81 1016.5
20260508031349 42 254 1.0 3.0 0.00 0.02 0.02 81 1016.3
20260508030844 42 104 0.0 3.0 0.00 0.02 0.02 81 1016.3
20260508030342 42 60 0.0 2.0 0.00 0.02 0.02 80 1016.2
20260508025838 42 220 2.0 2.0 0.00 0.02 0.02 81 1016.1
20260508025335 42 102 0.0 2.0 0.00 0.02 0.02 79 1016.2
20260508024832 43 143 1.0 2.0 0.00 0.02 0.02 78 1016.1
20260508024329 43 107 1.0 2.0 0.00 0.02 0.02 77 1016.1
20260508023826 43 142 1.0 2.0 0.00 0.02 0.02 77 1016.0
20260508023322 43 152 1.0 2.0 0.00 0.02 0.02 77 1016.1
20260508022819 44 224 0.0 2.0 0.00 0.02 0.02 76 1016.0
20260508022315 44 119 2.0 2.0 0.00 0.02 0.02 76 1015.7
20260508021812 44 135 0.0 2.0 0.00 0.02 0.02 76 1015.8
20260508021308 45 157 0.0 2.0 0.00 0.02 0.02 75 1015.4
20260508020804 45 228 2.0 2.0 0.00 0.02 0.02 74 1015.6
20260508020302 45 153 1.0 3.0 0.00 0.02 0.02 75 1015.4
20260508015759 45 185 0.0 3.0 0.00 0.02 0.02 75 1015.5
20260508015256 45 95 1.0 2.0 0.00 0.02 0.02 74 1015.3
20260508014753 46 205 0.0 2.0 0.00 0.02 0.02 74 1015.3
20260508014250 46 120 1.0 2.0 0.00 0.02 0.02 75 1015.3
20260508013745 46 194 2.0 3.0 0.00 0.02 0.02 73 1015.2
20260508013242 47 335 0.0 1.0 0.00 0.02 0.02 69 1015.0
20260508012740 48 53 0.0 2.0 0.00 0.02 0.02 66 1014.9
20260508012237 47 314 1.0 2.0 0.00 0.02 0.02 66 1014.9
20260508011735 48 44 0.0 1.0 0.00 0.02 0.02 64 1014.8
20260508011232 48 260 1.0 3.0 0.00 0.02 0.02 66 1014.9
20260508010728 48 54 1.0 2.0 0.00 0.02 0.02 65 1014.5
20260508010227 49 119 0.0 2.0 0.00 0.02 0.02 65 1014.7
20260508005723 49 55 0.0 0.0 0.00 0.02 0.02 63 1014.6
20260508005220 50 32 0.0 2.0 0.00 0.02 0.02 62 1014.6
20260508004716 51 41 1.0 2.0 0.00 0.02 0.02 58 1014.4
20260508004212 51 13 2.0 2.0 0.00 0.02 0.02 57 1014.3
20260508003709 51 47 1.0 2.0 0.00 0.02 0.02 54 1014.1
20260508003206 52 4 0.0 2.0 0.00 0.02 0.02 55 1014.1
20260508002703 53 345 2.0 2.0 0.00 0.02 0.02 51 1014.1
20260508002201 53 32 2.0 2.0 0.00 0.02 0.02 47 1014.1
20260508001656 54 58 2.0 3.0 0.00 0.02 0.02 46 1014.0
20260508001152 54 66 1.0 2.0 0.00 0.02 0.02 45 1013.7
20260508000648 55 271 2.0 2.0 0.00 0.02 0.02 42 1014.0
20260508000145 56 22 1.0 3.0 0.00 0.02 0.02 42 1014.1
20260507235642 55 43 9.0 10.0 0.00 0.02 0.02 41 1013.9
20260507235139 56 244 3.0 3.0 0.00 0.02 0.02 41 1013.7
20260507234636 56 19 2.0 7.0 0.00 0.02 0.02 41 1013.7
20260507234132 56 54 1.0 4.0 0.00 0.02 0.02 42 1013.6
20260507233629 56 354 1.0 5.0 0.00 0.02 0.02 41 1013.6
20260507233128 56 338 3.0 5.0 0.00 0.02 0.02 39 1013.7
20260507232625 56 5 3.0 3.0 0.00 0.02 0.02 41 1013.3
20260507232121 56 5 5.0 7.0 0.00 0.02 0.02 39 1013.4
20260507231617 57 23 2.0 6.0 0.00 0.02 0.02 43 1013.5
20260507231115 57 213 3.0 6.0 0.00 0.02 0.02 39 1013.6
20260507230611 57 339 2.0 6.0 0.00 0.02 0.02 39 1013.5
20260507230108 58 2 2.0 3.0 0.00 0.02 0.02 39 1013.3
20260507225603 57 357 0.0 6.0 0.00 0.02 0.02 40 1013.2
20260507225100 58 316 2.0 8.0 0.00 0.02 0.02 40 1013.1
20260507224555 57 23 8.0 12.0 0.00 0.02 0.02 39 1012.9
20260507224052 58 66 5.0 13.0 0.00 0.02 0.02 40 1013.2
20260507223548 58 20 9.0 10.0 0.00 0.02 0.02 39 1013.1
20260507223045 57 6 8.0 16.0 0.00 0.02 0.02 40 1012.8
20260507222542 58 234 2.0 6.0 0.00 0.02 0.02 41 1012.9
20260507222039 58 53 2.0 6.0 0.00 0.02 0.02 42 1013.1
20260507221535 58 338 3.0 12.0 0.00 0.02 0.02 39 1013.2
20260507221032 58 240 6.0 6.0 0.00 0.02 0.02 40 1012.8
20260507220529 58 6 3.0 5.0 0.00 0.02 0.02 40 1012.8
20260507220027 59 8 5.0 9.0 0.00 0.02 0.02 40 1012.7
20260507215523 59 300 2.0 6.0 0.00 0.02 0.02 41 1012.7
20260507215021 59 349 6.0 10.0 0.00 0.02 0.02 41 1012.6
20260507214518 59 316 3.0 11.0 0.00 0.02 0.02 37 1012.5
20260507214014 58 32 3.0 6.0 0.00 0.02 0.02 39 1012.3
20260507213510 60 346 5.0 7.0 0.00 0.02 0.02 37 1012.5
20260507213007 57 327 1.0 5.0 0.00 0.02 0.02 42 1012.3
20260507212502 58 348 6.0 7.0 0.00 0.02 0.02 42 1012.5
20260507212000 59 0 5.0 12.0 0.00 0.02 0.02 41 1012.6
20260507211456 61 34 5.0 6.0 0.00 0.02 0.02 40 1012.7
20260507210953 62 229 3.0 5.0 0.00 0.02 0.02 37 1012.2
20260507210450 59 352 5.0 8.0 0.00 0.02 0.02 40 1012.2
20260507205947 60 25 5.0 9.0 0.00 0.02 0.02 40 1012.2
20260507205444 58 221 7.0 7.0 0.00 0.02 0.02 38 1012.0
20260507204940 58 249 4.0 6.0 0.00 0.02 0.02 40 1012.0
20260507204436 60 13 2.0 9.0 0.00 0.02 0.02 37 1012.4
20260507203934 61 254 4.0 8.0 0.00 0.02 0.02 36 1012.5
20260507203431 60 352 2.0 5.0 0.00 0.02 0.02 36 1012.4
20260507202928 60 321 7.0 9.0 0.00 0.02 0.02 40 1012.3
20260507202419 60 111 2.0 6.0 0.00 0.02 0.02 39 1012.4
20260507201914 58 242 8.0 13.0 0.00 0.02 0.02 43 1012.7
20260507201410 59 27 6.0 12.0 0.00 0.02 0.02 41 1012.6
20260507200907 59 342 5.0 17.0 0.00 0.02 0.02 43 1012.5
20260507200403 59 352 4.0 14.0 0.00 0.02 0.02 41 1012.8
20260507195859 60 278 3.0 11.0 0.00 0.02 0.02 40 1012.8
20260507195356 59 226 4.0 12.0 0.00 0.02 0.02 43 1013.0
20260507194853 60 264 3.0 8.0 0.00 0.02 0.02 38 1012.9
20260507194350 61 238 8.0 10.0 0.00 0.02 0.02 41 1012.8
20260507193846 61 354 2.0 13.0 0.00 0.02 0.02 38 1012.8
20260507193343 60 1 5.0 7.0 0.00 0.02 0.02 40 1013.0
20260507192839 58 106 3.0 5.0 0.00 0.02 0.02 42 1012.9
20260507192336 60 15 4.0 8.0 0.00 0.02 0.02 37 1013.1
20260507191832 57 40 4.0 8.0 0.00 0.02 0.02 46 1013.0
20260507191329 58 34 6.0 8.0 0.00 0.02 0.02 41 1012.8
20260507190826 59 357 6.0 12.0 0.00 0.02 0.02 42 1012.9
20260507190324 59 342 5.0 8.0 0.00 0.02 0.02 41 1012.7
20260507185823 60 16 10.0 12.0 0.00 0.02 0.02 39 1012.7
20260507185319 61 6 5.0 12.0 0.00 0.02 0.02 45 1013.0
20260507184816 60 23 3.0 12.0 0.00 0.02 0.02 40 1013.0
20260507184314 60 301 3.0 6.0 0.00 0.02 0.02 43 1013.2
20260507183811 58 180 2.0 8.0 0.00 0.02 0.02 43 1013.3
20260507183308 60 28 8.0 16.0 0.00 0.02 0.02 42 1013.2
20260507182805 59 11 7.0 9.0 0.00 0.02 0.02 43 1012.9
20260507182300 60 283 3.0 8.0 0.00 0.02 0.02 45 1013.1
20260507181757 60 24 3.0 6.0 0.00 0.02 0.02 45 1013.0
20260507181253 60 244 13.0 13.0 0.00 0.02 0.02 45 1013.2
20260507180750 59 28 4.0 6.0 0.00 0.02 0.02 44 1013.1
20260507180247 59 6 5.0 10.0 0.00 0.02 0.02 46 1013.2
20260507175742 59 248 5.0 11.0 0.00 0.02 0.02 43 1013.2
20260507175240 59 345 6.0 8.0 0.00 0.02 0.02 50 1013.1
20260507174737 58 264 2.0 12.0 0.00 0.02 0.02 45 1012.8
20260507174235 59 62 4.0 7.0 0.00 0.02 0.02 45 1013.1
20260507173733 59 24 6.0 9.0 0.00 0.02 0.02 46 1013.1
20260507173229 59 239 3.0 7.0 0.00 0.02 0.02 43 1013.3
20260507172726 58 20 0.0 5.0 0.00 0.02 0.02 44 1013.6
20260507172223 58 303 1.0 7.0 0.00 0.02 0.02 48 1013.4
20260507171722 59 15 5.0 10.0 0.00 0.02 0.02 50 1013.7
20260507171220 58 121 3.0 6.0 0.00 0.02 0.02 49 1013.5
20260507170717 57 85 2.0 5.0 0.00 0.02 0.02 50 1013.6
20260507170214 57 264 4.0 6.0 0.00 0.02 0.02 57 1014.1
20260507165709 56 359 7.0 9.0 0.00 0.02 0.02 49 1014.1
20260507165206 55 69 1.0 9.0 0.00 0.02 0.02 52 1014.1
20260507164702 56 213 3.0 6.0 0.00 0.02 0.02 54 1014.2
20260507164200 57 319 3.0 10.0 0.00 0.02 0.02 51 1014.3
20260507163656 58 257 5.0 13.0 0.00 0.02 0.02 53 1014.1
20260507163154 57 221 9.0 11.0 0.00 0.02 0.02 50 1014.4
20260507162650 55 305 3.0 11.0 0.00 0.02 0.02 52 1014.5
20260507162146 55 8 6.0 9.0 0.00 0.02 0.02 59 1014.5
20260507161642 55 336 3.0 5.0 0.00 0.02 0.02 54 1014.5
20260507161139 54 120 0.0 9.0 0.00 0.02 0.02 55 1014.4
20260507160636 57 31 7.0 10.0 0.00 0.02 0.02 55 1014.6
20260507160132 55 232 5.0 8.0 0.00 0.02 0.02 57 1014.6
20260507155627 55 233 5.0 9.0 0.00 0.02 0.02 53 1014.9
20260507155119 54 228 3.0 7.0 0.00 0.02 0.02 60 1014.5
20260507154616 54 221 6.0 11.0 0.00 0.02 0.02 60 1014.8
20260507154113 53 357 2.0 5.0 0.00 0.02 0.02 58 1014.6
20260507153609 53 43 3.0 6.0 0.00 0.02 0.02 60 1014.5
20260507153106 54 344 5.0 5.0 0.00 0.02 0.02 59 1014.6
20260507152602 54 310 1.0 4.0 0.00 0.02 0.02 59 1014.6
20260507152058 53 62 4.0 6.0 0.00 0.02 0.02 59 1014.8
20260507151554 53 108 0.0 2.0 0.00 0.02 0.02 65 1014.8
20260507151052 53 105 0.0 5.0 0.00 0.02 0.02 60 1014.8
20260507150549 53 168 2.0 4.0 0.00 0.02 0.02 63 1014.9
20260507150045 53 280 2.0 8.0 0.00 0.02 0.02 65 1015.0
20260507145540 54 224 7.0 9.0 0.00 0.02 0.02 61 1015.1
20260507145038 50 95 2.0 2.0 0.00 0.02 0.02 67 1015.1
20260507144534 54 251 7.0 9.0 0.00 0.02 0.02 67 1015.2
20260507144026 52 214 2.0 2.0 0.00 0.02 0.02 68 1015.3
20260507143523 51 53 2.0 3.0 0.00 0.02 0.02 72 1015.3
20260507143021 51 345 2.0 4.0 0.00 0.02 0.02 71 1015.5
20260507142515 52 18 1.0 3.0 0.00 0.02 0.02 71 1015.5
20260507142013 51 32 2.0 3.0 0.00 0.02 0.02 73 1015.8
20260507141509 51 53 3.0 3.0 0.00 0.02 0.02 72 1015.8
20260507141007 50 353 3.0 3.0 0.00 0.02 0.02 76 1015.7
20260507140502 50 353 2.0 2.0 0.00 0.02 0.02 78 1015.8
20260507140000 51 284 2.0 2.0 0.00 0.02 0.02 76 1015.8
20260507135456 50 88 1.0 2.0 0.00 0.02 0.02 77 1015.8
20260507134953 50 33 3.0 3.0 0.00 0.02 0.02 79 1016.1
20260507134450 50 263 3.0 3.0 0.00 0.02 0.02 77 1016.1
20260507133946 50 20 2.0 3.0 0.00 0.02 0.02 81 1016.2
20260507133442 49 121 2.0 3.0 0.00 0.02 0.02 79 1016.2
20260507132941 49 67 3.0 4.0 0.00 0.02 0.02 80 1016.1
20260507132437 49 4 2.0 3.0 0.00 0.02 0.02 80 1016.3
20260507131933 48 352 0.0 2.0 0.00 0.02 0.02 81 1016.4
20260507131430 49 61 4.0 4.0 0.00 0.02 0.02 80 1016.1
20260507130927 49 57 2.0 3.0 0.00 0.02 0.02 81 1016.0
20260507130424 49 310 0.0 2.0 0.00 0.02 0.02 82 1016.2
20260507125923 48 26 1.0 1.0 0.00 0.02 0.02 85 1016.1
20260507125421 48 38 1.0 2.0 0.00 0.02 0.02 84 1016.3
20260507124918 48 299 0.0 1.0 0.00 0.02 0.02 86 1016.4
20260507124414 48 326 0.0 2.0 0.00 0.02 0.02 87 1016.2
20260507123913 48 218 0.0 0.0 0.00 0.02 0.02 89 1016.5
20260507123409 48 29 0.0 1.0 0.00 0.02 0.02 90 1016.4
20260507122906 47 89 0.0 2.0 0.00 0.02 0.02 90 1016.4
20260507122401 47 120 0.0 2.0 0.00 0.02 0.02 90 1016.4
20260507121858 47 235 0.0 1.0 0.00 0.02 0.02 91 1016.6
20260507121353 47 269 0.0 0.0 0.00 0.02 0.02 93 1016.5
20260507120850 47 354 1.0 2.0 0.00 0.02 0.02 93 1016.3
20260507120346 47 269 0.0 1.0 0.00 0.02 0.02 94 1016.2
20260507115842 47 219 0.0 0.0 0.00 0.02 0.02 94 1016.2
20260507115338 46 224 0.0 0.0 0.00 0.02 0.02 94 1016.1
20260507114834 47 210 0.0 2.0 0.00 0.02 0.02 94 1016.3
20260507114331 47 210 2.0 2.0 0.00 0.02 0.02 95 1016.1
20260507113829 46 322 0.0 1.0 0.00 0.02 0.02 95 1016.0
20260507113326 46 283 0.0 0.0 0.00 0.02 0.02 95 1015.8
20260507112823 46 326 0.0 1.0 0.00 0.02 0.02 95 1015.8
20260507112320 46 256 0.0 0.0 0.00 0.02 0.02 95 1015.7
20260507111818 46 231 0.0 0.0 0.00 0.02 0.02 95 1016.0
20260507111314 46 269 0.0 1.0 0.00 0.02 0.02 95 1015.6
20260507110810 46 175 1.0 2.0 0.00 0.02 0.02 95 1015.5
20260507110307 46 225 0.0 2.0 0.00 0.02 0.02 95 1015.4
20260507105804 46 98 1.0 1.0 0.00 0.02 0.02 95 1015.5
20260507105300 46 326 0.0 2.0 0.00 0.02 0.02 95 1015.3
20260507104757 46 28 1.0 2.0 0.00 0.02 0.02 95 1015.4
20260507104254 46 307 0.0 1.0 0.00 0.02 0.02 95 1015.5
20260507103750 46 246 0.0 0.0 0.00 0.02 0.02 95 1015.5
20260507103246 46 293 1.0 2.0 0.00 0.02 0.02 95 1015.2
20260507102742 46 321 0.0 0.0 0.00 0.02 0.02 94 1015.0
20260507102234 46 48 0.0 1.0 0.00 0.02 0.02 94 1015.2
20260507101730 46 82 1.0 2.0 0.00 0.02 0.02 94 1015.0
20260507101225 46 150 0.0 2.0 0.00 0.02 0.02 94 1015.3
20260507100722 46 86 0.0 1.0 0.00 0.02 0.02 93 1015.3
20260507100221 46 194 1.0 3.0 0.00 0.02 0.02 93 1015.1
20260507095718 46 209 0.0 1.0 0.00 0.02 0.02 92 1014.9
20260507095215 46 119 0.0 0.0 0.00 0.02 0.02 91 1015.2
20260507094712 46 72 0.0 3.0 0.00 0.02 0.02 90 1015.0
20260507094209 46 84 0.0 3.0 0.00 0.02 0.02 89 1014.9
20260507093705 47 54 3.0 4.0 0.00 0.02 0.02 90 1014.9
20260507093204 47 83 3.0 3.0 0.00 0.02 0.02 89 1015.0
20260507092701 47 38 4.0 5.0 0.00 0.02 0.02 89 1015.0
20260507092157 47 19 4.0 5.0 0.00 0.02 0.02 89 1015.1
20260507091653 47 38 4.0 6.0 0.00 0.02 0.02 89 1015.0
20260507091150 47 44 6.0 7.0 0.00 0.02 0.02 91 1014.9
20260507090646 47 9 3.0 5.0 0.00 0.02 0.02 92 1014.9
20260507090143 47 27 3.0 6.0 0.00 0.02 0.02 92 1015.2
20260507085640 47 15 3.0 7.0 0.02 0.02 0.02 93 1015.0
20260507085137 47 12 6.0 8.0 0.02 0.02 0.02 95 1014.9
20260507084634 48 55 4.0 6.0 0.02 0.01 0.01 95 1014.7
20260507084130 48 358 3.0 3.0 0.02 0.01 0.01 95 1014.9
20260507083627 48 240 0.0 0.0 0.02 0.01 0.01 95 1015.0
20260507083124 48 147 0.0 0.0 0.02 0.01 0.01 95 1015.0
20260507082620 48 256 0.0 0.0 0.00 0.00 0.00 95 1015.1
20260507082116 48 221 0.0 0.0 0.00 0.00 0.00 95 1015.1
20260507081613 48 256 0.0 0.0 0.00 0.00 0.00 95 1015.0
20260507081110 48 127 1.0 1.0 0.00 0.00 0.00 95 1015.0
20260507080606 48 76 0.0 0.0 0.00 0.00 0.00 95 1014.8
20260507075557 48 113 0.0 1.0 0.00 0.00 0.00 95 1014.9
20260507075054 48 124 0.0 0.0 0.00 0.00 0.00 95 1014.8
20260507074551 48 89 0.0 0.0 0.00 0.00 0.00 95 1014.8
20260507074049 48 212 0.0 2.0 0.00 0.00 0.00 95 1015.1
20260507073545 48 233 0.0 1.0 0.00 0.00 0.00 95 1015.0
20260507073042 48 174 0.0 0.0 0.00 0.00 0.00 95 1014.8
20260507072539 48 49 0.0 0.0 0.00 0.00 0.00 95 1014.9
20260507072036 48 76 0.0 0.0 0.00 0.00 0.00 95 1014.7
20260507071534 48 228 0.0 0.0 0.00 0.00 0.00 95 1014.9
20260507071030 48 228 0.0 0.0 0.00 0.00 0.00 95 1015.0
20260507070527 48 228 0.0 0.0 0.00 0.00 0.00 95 1015.0
20260507070024 48 228 0.0 0.0 0.00 0.00 0.00 95 1014.8
20260507065520 48 197 0.0 2.0 0.00 0.00 0.00 95 1015.0
20260507065018 48 238 2.0 2.0 0.00 0.00 0.00 95 1015.0
20260507064516 48 124 0.0 0.0 0.00 0.00 0.00 95 1014.9
20260507064014 48 110 0.0 1.0 0.00 0.00 0.00 96 1014.6
20260507063510 48 235 0.0 2.0 0.00 0.00 0.00 96 1014.8
20260507063008 49 252 1.0 2.0 0.00 0.00 0.00 96 1014.9
20260507062504 49 107 0.0 0.0 0.00 0.00 0.00 96 1014.9